STARLINK-1020

Last updated on Thu Dec 12 2019 00:02:03 GMT+0000 (Coordinated Universal Time)

1 44725U 19074N 19345.58335648 .00069142 00000-0 49284-3 0 9999 2 44725 53.0091 21.5397 0002187 20.2936 20.3120 15.73201776 4730

Satellite not in orbit